STARLINK-5700, 55607

Orbit data source: Space-Track

STARLINK-5700, 55607 is a payload satellite owned by SpaceX/Seattle (US) in LEO that was launched on Sun, 12 Feb 2023 UTC via an FALCON 9 launch vehicle from the Air Force Eastern Test Range (AFETR). Payload-class satellites include a variety of spacecraft equipped with specific instruments for various scientific and technological missions. These include communications satellites like Starlink; space stations such as the ISS; scientific satellites like the Hubble; Earth observation satellites from companies like Planet Labs, Umbra, and HawkEye 360; GPS; miniature CubeSats for education and research; and military/defense satellites.

Loading next visibility...
Identifier
55607, 2023-020AQ
Orbit
LEO
Country
Flag of USUS
Related business
Manufacturer
SpaceX/Seattle
Mission
Operational Commercial Communications
Bus & Motor
STARLINK, Unknown motor
Mass
305 kg wet, ~290 kg dry
Launch date (UTC)
2023-02-12 (4 years ago)
Launch vehicle
FALCON 9
Launch site
Air Force Eastern Test Range (AFETR)
Object type
Payload
Rocket body
Debris
Shape & HBR
Box + 1 Pan, 10.1 m
Radar Cross Section
13.562 m², Large (>1 m²)

Expand to show TLE details & history
Last TLE update: 1 day ago

TLE from 1 day ago
0 STARLINK-5700
1 55607U 23020AQ  26262.92469553 -.00000359  00000-0 -35186-5 0  9998
2 55607  43.0051 337.4163 0001621 288.2511  71.8164 15.27575931198743
Epoch: 2026-09-19T22:11Z
TLE epoch observation values (Epoch: 2026-09-19T22:11:33.693Z)
Latitude
-0.00005°
Longitude
5.69961°
Altitude
482.49 km
Speed
7.626 km/s
True Right ascension
22h 29m 39s
True Declination
0° 00' 00"
Sunlit
Object was in full shadow at epoch
Visualization orbit readout
Latitude
Unknown
Longitude
Unknown
Altitude
Unknown
Speed
Unknown
Apparent Right ascension
Unknown
Apparent Declination
Unknown
Sunlit
N/A
Visualization observer readout
Local Sidereal Time
03:11:20
Azimuth
Unknown
Elevation
Unknown
Doppler factor
Unknown
Orbital elements
Apogee altitude
486.118 km
Perigee altitude
483.893 km
Semi-major axis
6,863.143 km
Eccentricity
0.00016
Inclination
43.0051°
RAAN
337.4163°
Arg. of periapsis
288.2511°
True anomaly
71.83405°
Mean anomaly
71.8164°
Eccentric anomaly
71.82522°
Mean motion
3.81732 °/min
Orbital period
94.31 mins
BSTAR
-0.0000035186
Loading maneuver chart data...
Computing Atmospheric mass density...
Loading historical data...
Loading historical data...
Loading historical data...
Loading historical data...
Loading historical data...
Loading historical data...
Loading historical data...

Documentation

Showing up to 5 results
|